• In Österreich
  • Länderverzeichnis
  • Für 7 Tage
  • Wassertemperatur
  • Satellitenkarten
  • Wetterkarte
  • News
  • Widgets
  • user-avatar
    Anmelden

    Stündliche Wetter Audincourt

    Heute, 23 Oktober, Dienstag

    Zeit Temperatur Niederschläge Wind Luftdruck Luftfeuchtigkeit
    00:00 +7°C° 0 mm 2 m/S 742 mmHg 88%
    01:00 +7°C° 0 mm 2 m/S 742 mmHg 89%
    02:00 +6°C° 0 mm 2 m/S 742 mmHg 91%
    03:00 +7°C° 0 mm 1 m/S 742 mmHg 92%
    04:00 +7°C° 0 mm 1 m/S 742 mmHg 92%
    05:00 +6°C° 0 mm 1 m/S 742 mmHg 92%
    06:00 +6°C° 0 mm 1 m/S 742 mmHg 92%
    07:00 +8°C° 0 mm 1 m/S 742 mmHg 83%
    08:00 +11°C° 0 mm 1 m/S 742 mmHg 74%
    09:00 +13°C° 0 mm 1 m/S 742 mmHg 65%
    10:00 +14°C° 0 mm 1 m/S 742 mmHg 58%
    11:00 +16°C° 0 mm 1 m/S 741 mmHg 51%
    12:00 +17°C° 0 mm 2 m/S 741 mmHg 44%
    13:00 +17°C° 0 mm 2 m/S 741 mmHg 46%
    14:00 +16°C° 0 mm 2 m/S 741 mmHg 49%
    15:00 +16°C° 0 mm 2 m/S 740 mmHg 51%
    16:00 +14°C° 0 mm 2 m/S 741 mmHg 59%
    17:00 +12°C° 0 mm 1 m/S 741 mmHg 66%
    18:00 +10°C° 0 mm 1 m/S 741 mmHg 74%
    19:00 +9°C° 0 mm 1 m/S 741 mmHg 74%
    20:00 +9°C° 0 mm 1 m/S 741 mmHg 73%
    21:00 +9°C° 0 mm 1 m/S 742 mmHg 73%
    22:00 +9°C° 0 mm 1 m/S 741 mmHg 73%
    23:00 +9°C° 0 mm 1 m/S 741 mmHg 73%

    Morgen, 24 Oktober, Mittwoch

    Zeit Temperatur Niederschläge Wind Luftdruck Luftfeuchtigkeit
    00:00 +9°C° 0 mm 1 m/S 741 mmHg 73%
    01:00 +9°C° 0 mm 1 m/S 741 mmHg 74%
    02:00 +9°C° 0 mm 1 m/S 741 mmHg 75%
    03:00 +9°C° 0 mm 1 m/S 740 mmHg 76%
    04:00 +9°C° 0 mm 1 m/S 740 mmHg 79%
    05:00 +8°C° 0 mm 1 m/S 740 mmHg 81%
    06:00 +8°C° 0 mm 1 m/S 740 mmHg 84%
    07:00 +10°C° 0 mm 1 m/S 740 mmHg 80%
    08:00 +12°C° 0 mm 1 m/S 740 mmHg 75%
    09:00 +14°C° 0 mm 1 m/S 741 mmHg 70%
    10:00 +15°C° 0 mm 1 m/S 740 mmHg 70%
    11:00 +16°C° 0 mm 2 m/S 740 mmHg 69%
    12:00 +17°C° 0 mm 2 m/S 740 mmHg 68%
    13:00 +16°C° 0 mm 2 m/S 740 mmHg 71%
    14:00 +16°C° 0 mm 2 m/S 740 mmHg 74%
    15:00 +15°C° 0 mm 2 m/S 739 mmHg 77%
    16:00 +14°C° 0 mm 1 m/S 739 mmHg 83%
    17:00 +13°C° 0 mm 1 m/S 739 mmHg 88%
    18:00 +11°C° 0 mm 1 m/S 739 mmHg 94%
    19:00 +11°C° 0 mm 1 m/S 739 mmHg 94%
    20:00 +11°C° 0 mm 1 m/S 739 mmHg 95%
    21:00 +11°C° 0 mm 1 m/S 739 mmHg 95%
    22:00 +10°C° 0 mm 1 m/S 739 mmHg 95%
    23:00 +10°C° 0 mm 1 m/S 738 mmHg 95%

    übermorgen, 25 Oktober, Donnerstag

    Zeit Temperatur Niederschläge Wind Luftdruck Luftfeuchtigkeit
    00:00 +10°C° 0 mm 1 m/S 738 mmHg 96%
    01:00 +10°C° 0 mm 1 m/S 738 mmHg 96%
    02:00 +10°C° 0 mm 1 m/S 737 mmHg 96%
    03:00 +10°C° 0 mm 1 m/S 737 mmHg 96%
    04:00 +10°C° 0 mm 1 m/S 737 mmHg 96%
    05:00 +10°C° 0 mm 1 m/S 737 mmHg 96%
    06:00 +10°C° 0 mm 1 m/S 736 mmHg 96%
    07:00 +11°C° 0 mm 1 m/S 736 mmHg 90%
    08:00 +13°C° 0 mm 1 m/S 736 mmHg 84%
    09:00 +15°C° 0 mm 1 m/S 736 mmHg 78%
    10:00 +16°C° 0 mm 1 m/S 736 mmHg 70%
    11:00 +19°C° 0 mm 1 m/S 736 mmHg 63%
    12:00 +20°C° 0 mm 1 m/S 735 mmHg 56%
    13:00 +20°C° 0 mm 1 m/S 735 mmHg 58%
    14:00 +19°C° 0 mm 1 m/S 734 mmHg 61%
    15:00 +19°C° 0 mm 1 m/S 734 mmHg 64%
    16:00 +15°C° 0 mm 1 m/S 734 mmHg 73%
    17:00 +13°C° 0 mm 1 m/S 734 mmHg 82%
    18:00 +11°C° 0 mm 1 m/S 734 mmHg 90%
    19:00 +10°C° 0 mm 1 m/S 733 mmHg 91%
    20:00 +9°C° 0 mm 0 m/S 733 mmHg 92%
    21:00 +8°C° 0 mm 0 m/S 733 mmHg 93%
    22:00 +8°C° 0 mm 0 m/S 733 mmHg 93%
    23:00 +8°C° 0 mm 0 m/S 732 mmHg 93%

    26 Oktober, Freitag

    Zeit Temperatur Niederschläge Wind Luftdruck Luftfeuchtigkeit
    00:00 +7°C° 0 mm 0 m/S 732 mmHg 93%
    01:00 +7°C° 0 mm 0 m/S 732 mmHg 92%
    02:00 +7°C° 0 mm 0 m/S 731 mmHg 92%
    03:00 +7°C° 0 mm 0 m/S 731 mmHg 92%
    04:00 +8°C° 0 mm 1 m/S 731 mmHg 92%
    05:00 +7°C° 0 mm 1 m/S 730 mmHg 91%
    06:00 +7°C° 0 mm 1 m/S 730 mmHg 91%
    07:00 +9°C° 0 mm 1 m/S 730 mmHg 84%
    08:00 +11°C° 0 mm 1 m/S 730 mmHg 77%
    09:00 +12°C° 0 mm 2 m/S 730 mmHg 70%
    10:00 +13°C° 0 mm 2 m/S 730 mmHg 64%
    11:00 +15°C° 0 mm 2 m/S 729 mmHg 57%
    12:00 +16°C° 0 mm 2 m/S 729 mmHg 51%
    13:00 +16°C° 0 mm 2 m/S 729 mmHg 53%
    14:00 +15°C° 0 mm 2 m/S 728 mmHg 56%
    15:00 +15°C° 0 mm 2 m/S 728 mmHg 58%
    16:00 +13°C° 0 mm 2 m/S 728 mmHg 67%
    17:00 +11°C° 0 mm 1 m/S 728 mmHg 75%
    18:00 +9°C° 0 mm 1 m/S 728 mmHg 84%
    19:00 +9°C° 0 mm 1 m/S 728 mmHg 85%
    20:00 +9°C° 0 mm 1 m/S 728 mmHg 86%
    21:00 +9°C° 0 mm 1 m/S 728 mmHg 86%
    22:00 +9°C° 0 mm 1 m/S 728 mmHg 87%
    23:00 +9°C° 0 mm 1 m/S 728 mmHg 88%

    27 Oktober, Samstag

    Zeit Temperatur Niederschläge Wind Luftdruck Luftfeuchtigkeit
    00:00 +9°C° 0 mm 1 m/S 728 mmHg 90%
    01:00 +9°C° 0.3 mm 1 m/S 728 mmHg 90%
    02:00 +9°C° 0.3 mm 1 m/S 728 mmHg 91%
    03:00 +9°C° 0.3 mm 1 m/S 728 mmHg 92%
    04:00 +8°C° 0.7 mm 1 m/S 728 mmHg 93%
    05:00 +8°C° 0.7 mm 1 m/S 727 mmHg 94%
    06:00 +8°C° 0.7 mm 1 m/S 727 mmHg 95%
    07:00 +8°C° 0.9 mm 1 m/S 727 mmHg 94%
    08:00 +7°C° 0.9 mm 2 m/S 728 mmHg 93%
    09:00 +6°C° 0.9 mm 2 m/S 728 mmHg 91%
    10:00 +7°C° 0.4 mm 2 m/S 727 mmHg 89%
    11:00 +7°C° 0.4 mm 2 m/S 727 mmHg 86%
    12:00 +7°C° 0.4 mm 2 m/S 727 mmHg 83%
    13:00 +7°C° 0.5 mm 1 m/S 727 mmHg 84%
    14:00 +7°C° 0.5 mm 1 m/S 726 mmHg 85%
    15:00 +7°C° 0.5 mm 1 m/S 726 mmHg 86%
    16:00 +6°C° 0.6 mm 1 m/S 726 mmHg 88%
    17:00 +6°C° 0.6 mm 1 m/S 726 mmHg 90%
    18:00 +5°C° 0.6 mm 0 m/S 726 mmHg 92%
    19:00 +5°C° 0.6 mm 1 m/S 726 mmHg 92%
    20:00 +5°C° 0.6 mm 1 m/S 726 mmHg 93%
    21:00 +5°C° 0.6 mm 1 m/S 726 mmHg 93%
    22:00 +5°C° 0.8 mm 1 m/S 725 mmHg 93%
    23:00 +5°C° 0.8 mm 1 m/S 725 mmHg 94%

    28 Oktober, Sonntag

    Zeit Temperatur Niederschläge Wind Luftdruck Luftfeuchtigkeit
    00:00 +4°C° 0.8 mm 2 m/S 725 mmHg 94%
    01:00 +3°C° 0.8 mm 2 m/S 724 mmHg 94%
    02:00 +3°C° 0.8 mm 2 m/S 724 mmHg 94%
    03:00 +2°C° 0.8 mm 3 m/S 724 mmHg 93%
    04:00 +2°C° 0.5 mm 3 m/S 724 mmHg 93%
    05:00 +2°C° 0.5 mm 3 m/S 724 mmHg 93%
    06:00 +2°C° 0.5 mm 3 m/S 723 mmHg 93%
    07:00 +1°C° 0.6 mm 4 m/S 723 mmHg 92%
    08:00 +1°C° 0.6 mm 4 m/S 723 mmHg 91%
    09:00 +1°C° 0.6 mm 5 m/S 723 mmHg 90%
    10:00 +2°C° 0.8 mm 5 m/S 723 mmHg 89%
    11:00 +2°C° 0.8 mm 5 m/S 723 mmHg 88%
    12:00 +2°C° 0.8 mm 6 m/S 723 mmHg 87%
    13:00 +2°C° 0.7 mm 5 m/S 723 mmHg 87%
    14:00 +1°C° 0.7 mm 5 m/S 723 mmHg 87%
    15:00 +1°C° 0.7 mm 5 m/S 723 mmHg 86%
    16:00 +1°C° 0.6 mm 5 m/S 723 mmHg 87%
    17:00 0°C° 0.6 mm 5 m/S 723 mmHg 87%
    18:00 0°C° 0.6 mm 4 m/S 724 mmHg 87%
    19:00 0°C° 0.6 mm 4 m/S 724 mmHg 88%
    20:00 0°C° 0.6 mm 4 m/S 724 mmHg 89%
    21:00 0°C° 0.6 mm 4 m/S 723 mmHg 90%
    22:00 0°C° 0.7 mm 4 m/S 723 mmHg 91%
    23:00 0°C° 0.7 mm 4 m/S 723 mmHg 91%

    29 Oktober, Montag

    Zeit Temperatur Niederschläge Wind Luftdruck Luftfeuchtigkeit
    00:00 0°C° 0.7 mm 4 m/S 723 mmHg 92%
    01:00 -1°C° 0.5 mm 4 m/S 723 mmHg 92%
    02:00 -1°C° 0.5 mm 4 m/S 723 mmHg 93%
    03:00 -1°C° 0.5 mm 4 m/S 723 mmHg 93%
    04:00 0°C° 0.2 mm 3 m/S 723 mmHg 93%
    05:00 0°C° 0.2 mm 3 m/S 723 mmHg 93%
    06:00 -1°C° 0.2 mm 3 m/S 723 mmHg 93%
    07:00 0°C° 0.2 mm 3 m/S 723 mmHg 93%
    08:00 0°C° 0.2 mm 3 m/S 723 mmHg 92%
    09:00 0°C° 0.2 mm 3 m/S 723 mmHg 91%
    10:00 +2°C° 0.2 mm 2 m/S 723 mmHg 91%
    11:00 +2°C° 0.2 mm 2 m/S 723 mmHg 91%
    12:00 +2°C° 0.2 mm 2 m/S 723 mmHg 90%
    13:00 +3°C° 0.1 mm 2 m/S 723 mmHg 90%
    14:00 +4°C° 0.1 mm 1 m/S 723 mmHg 90%
    15:00 +4°C° 0.1 mm 1 m/S 722 mmHg 90%
    16:00 +3°C° 0.1 mm 1 m/S 723 mmHg 91%
    17:00 +2°C° 0.1 mm 1 m/S 723 mmHg 92%
    18:00 0°C° 0.1 mm 0 m/S 723 mmHg 93%
    19:00 +1°C° 0 mm 1 m/S 722 mmHg 94%
    20:00 0°C° 0 mm 1 m/S 722 mmHg 94%
    21:00 0°C° 0 mm 1 m/S 722 mmHg 94%
    22:00 -1°C° 0 mm 1 m/S 722 mmHg 94%
    23:00 -1°C° 0 mm 1 m/S 721 mmHg 94%
    Mehr zeigen